Location: Unspecified
(0.0000°N, 0.0000°E)
Time: 21:12:15
(UTC+00:00)

ADRAS-J - Visible Passes

Search period start: 17 May 2025 00:00
Search period end: 27 May 2025 00:00
Orbit: 542 x 596 km, 98.2° (Epoch: 17 May)

Date Brightness Start Highest point End Pass type
(mag) Time Alt. Az. Time Alt. Az. Time Alt. Az.
17 May ? 04:54:22 10° NNE 04:58:24 52° ESE 05:02:29 10° S visible
18 May ? 04:55:48 10° NNE 04:59:52 54° ESE 05:03:58 10° S visible
19 May ? 04:57:14 10° NNE 05:01:19 57° ESE 05:05:26 10° S visible
20 May ? 04:58:40 10° NNE 05:02:46 59° ESE 05:06:54 10° S visible
21 May ? 05:00:05 10° NNE 05:04:12 62° ESE 05:08:21 10° S visible
22 May ? 05:01:29 10° NNE 05:05:38 64° ESE 05:09:47 10° S visible
23 May ? 05:02:53 10° NNE 05:07:02 67° ESE 05:11:13 10° S visible
24 May ? 05:04:17 10° NNE 05:08:27 70° ESE 05:12:37 10° S visible
25 May ? 05:05:40 10° NNE 05:09:50 73° ESE 05:14:01 10° S visible
26 May ? 05:07:03 10° NNE 05:11:14 76° ESE 05:15:25 10° S visible
